QIANFAN-41 (62242 NORAD) Tracking and Keplerian Element Data

This shows tracking and keplerian element data for the satellite.

Feedback or suggestion? Click here.




ElementValue
Catalog62242
NameQIANFAN-41
Epoch Orbit5694
Epoch Day34.79135469
Epoch Year2025
RAAN73.1858
Inclination88.9889
Eccentricity0.0016581
Argument of Perigee31.6854
Mean Anonmoly328.5331
Mean Motion14.20022606
Decay Rate4.51E-06
L11 62242U 24232F 25034.79135469 .00000451 00000+0 20487-3 0 9990
L22 62242 88.9889 73.1858 0016581 31.6854 328.5331 14.20022606 56940



Live tracking and technical data element details for QIANFAN-41 (NORAD 62242). QIANFAN-41 can be tracked NOW for your location showing map with azimuth and elevation plus other details from your city location.







IsCatalogInMostPopularTable: catalog: 62242, numindb: 11
Update: records affected: 1



GetName: 62242 QIANFAN-41

Hit Count: updated at: Sat, 24 May 2025 15:53:10 GMT